Weather History for KMMH - December, 2013

Change the Weather History Date:

Monday, December 16, 2013

  Actual Average Record
Temperature  
Mean Temperature 34 °F -  
Max Temperature 57 °F 39 °F 59 °F (1999)
Min Temperature 12 °F 23 °F -2 °F (2008)
Degree Days  
Heating Degree Days 30    
Moisture  
Dew Point 13 °F    
Average Humidity 53    
Maximum Humidity 86    
Minimum Humidity 14    
Precipitation  
Precipitation 0.00 in - - ()
Sea Level Pressure  
Sea Level Pressure 30.48 in    
Wind  
Wind Speed 3 mph (NNW)    
Max Wind Speed 9 mph    
Max Gust Speed -    
Visibility 10 miles    
Events      
Averages and records for this station are not official NWS values.
T = Trace of Precipitation, MM = Missing Value Source: NWS Daily Summary

Daily Weather History Graph

Daily Weather History Graph

Search for Another Location

Airport or City:

Trip Planner

Search our weather history database for the weather conditions in past years. The results will help you decide how hot, cold, wet, or windy it might be!

Date:

Astronomy

Dec. 16, 2013 Rise Set
Actual Time 7:03 AM PST 4:38 PM PST
Civil Twilight 6:34 AM PST 5:07 PM PST
Nautical Twilight 6:01 AM PST 5:40 PM PST
Astronomical Twilight 5:29 AM PST 6:12 PM PST
Moon 4:31 PM PST (12/16) 6:17 AM PST (12/16)
Length of Visible Light 10h 33m
Length of Day
9h 34m
Full, 100% of the Moon is Illuminated
Dec 16
Full
Dec 17
Full
Dec 25
Last Quarter
Jan 1
New
Jan 7
First Quarter

Hourly Weather History & Observations

Time (PST) Temp. Windchill Dew Point Humidity Pressure Visibility Wind Dir Wind Speed Gust Speed Precip Events Conditions
12:15 AM 23.0 °F - 14.0 °F 68% 30.48 in 10.0 mi Calm Calm - N/A   Clear
12:35 AM 26.6 °F - 15.8 °F 64% 30.48 in 10.0 mi North - - N/A   Clear
12:55 AM 21.2 °F - 12.2 °F 68% 30.48 in 10.0 mi North - - N/A   Clear
1:15 AM 19.4 °F 11.5 °F 14.0 °F 80% 30.48 in 10.0 mi North 5.8 mph - N/A   Clear
1:35 AM 19.4 °F - 14.0 °F 80% 30.49 in 10.0 mi North - - N/A   Clear
1:55 AM 19.4 °F - 14.0 °F 80% 30.49 in 10.0 mi North - - N/A   Clear
2:15 AM 19.4 °F 12.8 °F 12.2 °F 74% 30.48 in 10.0 mi North 4.6 mph - N/A   Clear
2:35 AM 17.6 °F 12.3 °F 12.2 °F 79% 30.49 in 10.0 mi North 3.5 mph - N/A   Clear
2:55 AM 19.4 °F - 12.2 °F 74% 30.48 in 10.0 mi North - - N/A   Clear
3:15 AM 15.8 °F 8.6 °F 10.4 °F 79% 30.48 in 10.0 mi North 4.6 mph - N/A   Clear
3:35 AM 19.4 °F - 12.2 °F 74% 30.47 in 10.0 mi Calm Calm - N/A   Clear
3:55 AM 19.4 °F - 12.2 °F 74% 30.47 in 10.0 mi North - - N/A   Clear
4:15 AM 17.6 °F - 10.4 °F 73% 30.47 in 10.0 mi North - - N/A   Clear
4:35 AM 12.2 °F 6.1 °F 8.6 °F 85% 30.47 in 10.0 mi NNW 3.5 mph - N/A   Clear
4:55 AM 12.2 °F 4.3 °F 8.6 °F 85% 30.47 in 10.0 mi North 4.6 mph - N/A   Clear
5:15 AM 15.8 °F 10.2 °F 10.4 °F 79% 30.47 in 10.0 mi NW 3.5 mph - N/A   Clear
5:35 AM 12.2 °F - 8.6 °F 85% 30.47 in 10.0 mi North - - N/A   Clear
5:55 AM 17.6 °F - 12.2 °F 79% 30.47 in 10.0 mi Calm Calm - N/A   Clear
6:15 AM 14.0 °F - 8.6 °F 79% 30.48 in 10.0 mi Calm Calm - N/A   Clear
6:35 AM 14.0 °F - 10.4 °F 86% 30.48 in 10.0 mi Calm Calm - N/A   Clear
6:55 AM 14.0 °F - 10.4 °F 86% 30.49 in 10.0 mi Calm Calm - N/A   Clear
7:15 AM 15.8 °F 10.2 °F 8.6 °F 73% 30.49 in 10.0 mi NW 3.5 mph - N/A   Clear
7:35 AM 12.2 °F 6.1 °F 6.8 °F 79% 30.49 in 10.0 mi NNW 3.5 mph - N/A   Clear
7:55 AM 12.2 °F - 8.6 °F 85% 30.50 in 10.0 mi Calm Calm - N/A   Clear
8:15 AM 19.4 °F - 14.0 °F 80% 30.51 in 10.0 mi Calm Calm - N/A   Clear
8:35 AM 23.0 °F - 14.0 °F 68% 30.52 in 10.0 mi Calm Calm - N/A   Clear
8:55 AM 26.6 °F - 15.8 °F 64% 30.52 in 10.0 mi Calm Calm - N/A   Clear
9:15 AM 32.0 °F - 15.8 °F 51% 30.53 in 10.0 mi Calm Calm - N/A   Clear
9:35 AM 30.2 °F 26.7 °F 15.8 °F 55% 30.54 in 10.0 mi SE 3.5 mph - N/A   Clear
9:55 AM 35.6 °F 30.7 °F 15.8 °F 44% 30.54 in 10.0 mi SE 5.8 mph - N/A   Clear
10:15 AM 37.4 °F 32.8 °F 15.8 °F 41% 30.54 in 10.0 mi SE 5.8 mph - N/A   Clear
10:35 AM 41.0 °F 38.0 °F 15.8 °F 36% 30.53 in 10.0 mi SE 4.6 mph - N/A   Clear
10:55 AM 44.6 °F 43.1 °F 14.0 °F 29% 30.52 in 10.0 mi SE 3.5 mph - N/A   Clear
11:15 AM 46.4 °F 42.9 °F 14.0 °F 27% 30.51 in 10.0 mi SSE 6.9 mph - N/A   Clear
11:35 AM 48.2 °F - 14.0 °F 25% 30.49 in 10.0 mi South 9.2 mph - N/A   Clear
11:55 AM 51.8 °F - 14.0 °F 22% 30.48 in 10.0 mi South 4.6 mph - N/A   Clear
12:15 PM 53.6 °F - 14.0 °F 21% 30.47 in 10.0 mi SE 4.6 mph - N/A   Clear
12:35 PM 55.4 °F - 14.0 °F 20% 30.46 in 10.0 mi SE 5.8 mph - N/A   Clear
12:55 PM 55.4 °F - 14.0 °F 20% 30.45 in 10.0 mi SE 6.9 mph - N/A   Clear
1:15 PM 57.2 °F - 14.0 °F 18% 30.44 in 10.0 mi SE 5.8 mph - N/A   Clear
1:35 PM 57.2 °F - 14.0 °F 18% 30.43 in 10.0 mi SE 4.6 mph - N/A   Clear
1:55 PM 57.2 °F - 12.2 °F 17% 30.43 in 10.0 mi SE 3.5 mph - N/A   Clear
2:15 PM 57.2 °F - 10.4 °F 16% 30.43 in 10.0 mi SE 4.6 mph - N/A   Clear
2:35 PM 57.2 °F - 8.6 °F 14% 30.43 in 10.0 mi Calm Calm - N/A   Clear
2:55 PM 55.4 °F - 10.4 °F 17% 30.43 in 10.0 mi Calm Calm - N/A   Clear
3:15 PM 57.2 °F - 8.6 °F 14% 30.43 in 10.0 mi Calm Calm - N/A   Clear
3:35 PM 55.4 °F - 10.4 °F 17% 30.43 in 10.0 mi Calm Calm - N/A   Clear
3:55 PM 48.2 °F - 12.2 °F 24% 30.43 in 10.0 mi SSW 9.2 mph - N/A   Clear
4:15 PM 46.4 °F 43.5 °F 12.2 °F 25% 30.43 in 10.0 mi SW 5.8 mph - N/A   Clear
4:35 PM 44.6 °F - 12.2 °F 27% 30.44 in 10.0 mi Calm Calm - N/A   Clear
4:55 PM 39.2 °F 33.6 °F 12.2 °F 33% 30.44 in 10.0 mi West 8.1 mph - N/A   Clear
5:15 PM 39.2 °F - 12.2 °F 33% 30.44 in 10.0 mi Calm Calm - N/A   Clear
5:35 PM 39.2 °F - 14.0 °F 36% 30.45 in 10.0 mi Calm Calm - N/A   Clear
5:55 PM 37.4 °F 34.9 °F 15.8 °F 41% 30.46 in 10.0 mi NW 3.5 mph - N/A   Clear
6:15 PM 35.6 °F - 15.8 °F 44% 30.46 in 10.0 mi Calm Calm - N/A   Clear
6:35 PM 35.6 °F 32.8 °F 14.0 °F 41% 30.46 in 10.0 mi NW 3.5 mph - N/A   Clear
6:55 PM 33.8 °F 30.8 °F 15.8 °F 48% 30.46 in 10.0 mi WNW 3.5 mph - N/A   Clear
7:15 PM 33.8 °F 30.8 °F 15.8 °F 48% 30.47 in 10.0 mi NW 3.5 mph - N/A   Clear
7:35 PM 32.0 °F 28.7 °F 15.8 °F 51% 30.47 in 10.0 mi North 3.5 mph - N/A   Clear
7:55 PM 32.0 °F 28.7 °F 15.8 °F 51% 30.47 in 10.0 mi NNW 3.5 mph - N/A   Clear
8:15 PM 32.0 °F - 14.0 °F 48% 30.47 in 10.0 mi Calm Calm - N/A   Clear
8:35 PM 30.2 °F - 14.0 °F 51% 30.48 in 10.0 mi Calm Calm - N/A   Clear
8:55 PM 28.4 °F 24.6 °F 14.0 °F 55% 30.48 in 10.0 mi North 3.5 mph - N/A   Clear
9:15 PM 28.4 °F 24.6 °F 14.0 °F 55% 30.49 in 10.0 mi NW 3.5 mph - N/A   Clear
9:55 PM 26.6 °F - 14.0 °F 59% 30.48 in 10.0 mi North - - N/A   Clear
10:15 PM 28.4 °F 22.2 °F 14.0 °F 55% 30.49 in 10.0 mi NW 5.8 mph - N/A   Clear
10:35 PM 26.6 °F - 14.0 °F 59% 30.49 in 10.0 mi North - - N/A   Clear
10:55 PM 26.6 °F 22.6 °F 14.0 °F 59% 30.49 in 10.0 mi NW 3.5 mph - N/A   Clear
11:15 PM 26.6 °F - 14.0 °F 59% 30.49 in 10.0 mi North - - N/A   Clear
11:35 PM 24.8 °F - 14.0 °F 64% 30.49 in 10.0 mi North - - N/A   Clear
11:55 PM 23.0 °F 18.4 °F 12.2 °F 63% 30.48 in 10.0 mi NW 3.5 mph - N/A   Clear